Weather History for Evansville, IN

Change the Weather History Date:

Thursday, April 26, 2012

  Actual Average Record
Temperature  
Mean Temperature 67 °F 60 °F  
Max Temperature 81 °F 71 °F 91 °F (1989)
Min Temperature 52 °F 48 °F 34 °F (1947)
Degree Days  
Heating Degree Days 0 6  
Month to date heating degree days 206 265  
Since 1 July heating degree days 3452 4431  
Cooling Degree Days 2 1  
Month to date cooling degree days 31 18  
Year to date cooling degree days 79 21  
Growing Degree Days 20 (Base 50)    
Moisture  
Dew Point 57 °F    
Average Humidity 65    
Maximum Humidity 93    
Minimum Humidity 36    
Precipitation  
Precipitation 0.14 in 0.16 in 1.88 in (1898)
Month to date precipitation 1.07 3.72  
Year to date precipitation 8.72 14.23  
Snow  
Snow 0.00 in 0.00 in T in (1953)
Month to date snowfall 0.0 0.1  
Since 1 July snowfall 0.5 11.8  
Snow Depth 0.00 in    
Sea Level Pressure  
Sea Level Pressure 29.77 in    
Wind  
Wind Speed 10 mph (NW)    
Max Wind Speed 23 mph    
Max Gust Speed 30 mph    
Visibility 10 miles    
Events Rain , Thunderstorm    
T = Trace of Precipitation, MM = Missing Value Source: NWS Daily Summary

Daily Weather History Graph

Daily Weather History Graph

Search for Another Location

Airport:

Trip Planner

Search our weather history database for the weather conditions in past years. The results will help you decide how hot, cold, wet, or windy it might be!

Date:

Astronomy

Apr. 26, 2012 Rise Set
Actual Time 5:59 AM CDT 7:36 PM CDT
Civil Twilight 5:31 AM CDT 8:04 PM CDT
Nautical Twilight 4:57 AM CDT 8:38 PM CDT
Astronomical Twilight 4:21 AM CDT 9:14 PM CDT
Moon 9:40 AM CDT (4/26) No Moon Set
Length of Visible Light 14h 33m
Length of Day
13h 37m
Waxing Crescent, 24% of the Moon is Illuminated
Apr 26
Waxing Crescent
Apr 29
First Quarter
May 5
Full
May 12
Last Quarter
May 20
New

Hourly Weather History & Observations

Time (CDT) Temp. Heat Index Dew Point Humidity Pressure Visibility Wind Dir Wind Speed Gust Speed Precip Events Conditions
12:54 AM 72.0 °F - 59.0 °F 64% 29.63 in 10.0 mi SW 13.8 mph - N/A   Clear
1:52 AM 73.4 °F - 59.0 °F 61% 29.68 in 10.0 mi West 13.8 mph 19.6 mph 0.00 in Rain , Thunderstorm Light Rain
1:54 AM 71.6 °F - 60.8 °F 69% 29.69 in 10.0 mi West 17.3 mph 29.9 mph N/A Rain , Thunderstorm Light Rain
2:54 AM 64.9 °F - 62.1 °F 90% 29.62 in 10.0 mi NNE 9.2 mph - 0.14 in Rain , Thunderstorm Light Thunderstorms and Rain
3:09 AM 64.4 °F - 62.6 °F 94% 29.66 in 10.0 mi SW 11.5 mph 17.3 mph 0.00 in Rain , Thunderstorm Light Rain
3:30 AM 64.4 °F - 60.8 °F 88% 29.67 in 10.0 mi WSW 8.1 mph - 0.00 in   Scattered Clouds
3:47 AM 62.6 °F - 60.8 °F 94% 29.67 in 10.0 mi WSW 8.1 mph - 0.00 in Thunderstorm Thunderstorm
3:54 AM 63.0 °F - 60.1 °F 90% 29.65 in 10.0 mi SW 9.2 mph - 0.00 in Thunderstorm Thunderstorm
4:02 AM 64.4 °F - 60.8 °F 88% 29.63 in 10.0 mi SSW 12.7 mph - N/A   Scattered Clouds
4:54 AM 63.0 °F - 60.1 °F 90% 29.66 in 10.0 mi Calm Calm - N/A   Clear
5:54 AM 63.0 °F - 60.1 °F 90% 29.67 in 10.0 mi Calm Calm - N/A   Clear
6:54 AM 63.0 °F - 60.1 °F 90% 29.71 in 8.0 mi SSW 3.5 mph - N/A   Clear
7:54 AM 70.0 °F - 63.0 °F 78% 29.73 in 10.0 mi West 6.9 mph - N/A   Clear
8:54 AM 73.0 °F - 64.0 °F 73% 29.74 in 10.0 mi West 10.4 mph - N/A   Clear
9:13 AM 73.4 °F - 64.4 °F 73% 29.76 in 1.8 mi NW 8.1 mph - N/A   Haze
9:25 AM 73.4 °F - 62.6 °F 69% 29.76 in 10.0 mi NW 9.2 mph - N/A   Clear
9:54 AM 75.0 °F - 63.0 °F 66% 29.76 in 10.0 mi NNW 9.2 mph - N/A   Clear
10:54 AM 77.0 °F - 62.1 °F 60% 29.79 in 10.0 mi North 6.9 mph - N/A   Clear
11:54 AM 79.0 °F - 61.0 °F 54% 29.80 in 10.0 mi NNW 10.4 mph - N/A   Partly Cloudy
12:54 PM 80.6 °F 80.8 °F 57.2 °F 45% 29.83 in 10.0 mi NW 13.8 mph 20.7 mph N/A   Clear
1:54 PM 80.1 °F 80.2 °F 55.9 °F 43% 29.83 in 10.0 mi NNW 9.2 mph - N/A   Clear
2:54 PM 81.0 °F 80.5 °F 54.0 °F 39% 29.84 in 10.0 mi North 10.4 mph - N/A   Clear
3:54 PM 80.1 °F - 52.0 °F 38% 29.84 in 10.0 mi NNW 13.8 mph 24.2 mph N/A   Clear
4:54 PM 78.1 °F - 52.0 °F 40% 29.85 in 10.0 mi NW 13.8 mph 25.3 mph N/A   Scattered Clouds
5:54 PM 77.0 °F - 52.0 °F 42% 29.87 in 10.0 mi NNW 10.4 mph 17.3 mph N/A   Partly Cloudy
6:54 PM 73.0 °F - 50.0 °F 44% 29.89 in 10.0 mi NNW 11.5 mph 19.6 mph N/A   Clear
7:54 PM 68.0 °F - 48.9 °F 50% 29.92 in 10.0 mi NNE 17.3 mph 28.8 mph N/A   Clear
8:54 PM 62.1 °F - 46.0 °F 56% 29.97 in 10.0 mi NNE 12.7 mph - N/A   Clear
9:54 PM 59.0 °F - 42.1 °F 53% 30.01 in 10.0 mi NNE 12.7 mph 19.6 mph N/A   Clear
11:54 PM 54.0 °F - 36.0 °F 51% 30.06 in 10.0 mi NE 9.2 mph - N/A   Clear